Location: Mentone
(34.5413°N, 85.5351°W)
Time: 19:37:49
(UTC-05:00)

Vanguard 1 - Visible Passes

Search period start: 24 October 2014 00:00
Search period end: 02 November 2014 23:00
Orbit: 652 x 3835 km, 34.2° (Epoch: 22 October)

Date Brightness Start Highest point End Pass type
(mag) Time Alt. Az. Time Alt. Az. Time Alt. Az.
26 Oct 12.6 05:54:03 10° S 05:57:55 14° SSE 06:01:02 10° ESE visible
27 Oct 12.1 06:13:57 10° SSW 06:19:36 22° SSE 06:23:42 10° ESE visible
29 Oct 12.8 04:36:28 10° S 04:41:35 15° SSE 04:45:34 10° ESE visible
30 Oct 12.4 04:56:04 10° SSW 05:03:24 22° SSE 05:08:27 10° ESE visible
31 Oct 12.0 05:16:35 10° SSW 05:25:10 30° SSE 05:30:36 10° E visible
01 Nov 13.1 03:20:56 13° S 03:24:46 15° SSE 03:29:49 10° ESE visible
01 Nov 11.5 05:37:38 10° SW 05:46:51 40° SSE 05:52:24 10° E visible
02 Nov 12.7 02:42:20 18° S 02:46:42 22° SSE 02:53:00 10° ESE visible
02 Nov 11.0 04:59:03 10° SW 05:08:30 51° SSE 05:14:01 10° E visible
